Location: Ar Ranvel
(48.3000°N, 4.8833°W)
Time: 08:16:10
(UTC+00:00)

SL-16 R/B - Pass Details

Date: 16 June 2021
Orbit: 842 x 845 km, 71.0° (Epoch: 01 August)

Event Time Altitude Azimuth Distance (km) Brightness Sun altitude
Rises 21:39:36 0° 213° (SSW) 3,388 5.1 -9.8°
Reaches altitude 10° 21:42:02 10° 216° (SW) 2,457 4.4 -10.0°
Maximum altitude 21:47:40 71° 300° (WNW) 894 2.5 -10.6°
Drops below altitude 10° 21:53:21 10° 25° (NNE) 2,475 5.1 -11.1°
Sets 21:55:49 0° 27° (NNE) 3,414 5.8 -11.4°
